Location: Newark
(41.5333°N, 14.5500°E)
Time: 10:28:27
(UTC+00:00)

Envisat - Pass Details

Date: 02 February 2020
Orbit: 764 x 766 km, 98.1° (Epoch: 22 February)

Event Time Altitude Azimuth Distance (km) Brightness Sun altitude
Rises 17:29:14 0° 188° (S) 3,217 6.5 -13.6°
Reaches altitude 10° 17:31:42 10° 196° (SSW) 2,296 5.8 -14.0°
Maximum altitude 17:36:21 36° 263° (W) 1,191 4.7 -14.9°
Drops below altitude 10° 17:41:02 10° 330° (NNW) 2,310 5.7 -15.8°
Sets 17:43:32 0° 339° (NNW) 3,241 6.4 -16.2°
